Temp
13 12 10 10 10 10 10 10 10 10 11 12 13 16 18 19 19 18 17 26 26 26 25 25 25 25 26 25 24 23 23 24 26 27 27 28 27 28 28 26 27 27 24 24 21
16 16 15 13 12 11 11 11 11 12 12 13 15 16 17 18 17 16 26 26 26 26 25 25 25 26 24 24 23 23 22 25 24 24 25 28 28 28 27 27 25 25 24 23 22
16 16 16 17 15 15 13 14 14 14 16 16 17 17 18 17 16 23 27 26 26 26 26 26 26 26 24 25 25 24 22 24 25 25 24 25 27 29 27 27 25 23 23 23 23
15 16 16 17 17 17 17 17 17 17 17 17 17 18 18 16 25 26 27 26 26 25 26 26 25 25 25 24 26 24 24 22 24 24 24 24 26 28 28 27 26 24 24 24 23
16 16 17 17 17 17 18 18 18 18 18 18 18 18 16 18 20 27 27 26 25 25 25 25 25 25 25 26 26 25 23 23 23 23 23 25 26 28 28 27 26 25 24 24 23
16 16 17 17 17 18 18 18 19 19 18 18 18 17 16 21 25 25 26 25 25 25 25 25 25 26 26 26 27 25 23 23 23 23 23 25 27 27 27 27 26 25 25 24 24
16 17 17 17 18 18 18 18 19 19 18 18 17 15 15 21 25 26 25 25 25 25 24 25 26 26 25 27 24 24 23 23 22 23 22 24 25 26 28 26 26 25 25 25 25
17 17 17 18 18 18 19 19 19 19 18 19 17 14 16 25 25 25 25 25 25 25 25 26 27 26 26 25 25 24 22 24 22 22 23 23 25 26 27 27 25 26 26 25 25
17 17 18 18 19 19 20 20 21 18 18 18 15 16 20 25 25 27 26 26 25 25 26 27 27 25 27 24 23 23 22 22 22 20 22 24 25 26 28 28 27 27 26 25 25
17 18 18 18 19 20 21 21 19 17 17 16 15 17 22 26 27 28 27 27 26 25 26 27 24 23 22 22 24 23 22 22 22 21 22 23 24 26 26 27 27 25 25 25 25
17 18 18 19 20 20 21 19 18 18 17 21 23 23 24 27 28 27 27 26 27 26 24 26 24 23 25 25 27 25 24 22 22 22 22 22 22 23 23 25 26 24 24 25 25
17 18 19 19 20 21 20 18 21 22 20 20 21 21 24 26 27 28 28 27 25 24 25 23 23 25 26 25 25 23 23 22 22 22 22 22 22 22 22 23 23 23 24 25 23
18 18 19 20 21 20 19 22 23 22 20 22 23 24 26 26 27 28 27 27 26 25 25 23 26 26 27 25 24 24 24 22 23 22 22 22 23 22 22 22 23 23 24 26 24
18 19 20 21 19 20 20 23 23 22 19 24 26 27 27 28 27 29 28 28 26 25 25 24 26 27 24 24 24 24 25 24 22 22 22 22 23 22 22 22 23 23 23 23 24
20 20 21 22 20 19 24 24 23 23 21 27 27 29 26 26 28 29 28 28 27 26 26 25 27 26 25 25 25 25 25 24 23 22 22 22 21 22 22 22 23 23 23 23 24
21 22 22 21 20 24 24 25 24 21 23 25 28 28 27 27 27 28 28 28 27 27 25 25 27 27 26 27 26 25 23 23 23 21 22 23 22 22 21 23 24 24 24 23 24
22 23 23 22 22 25 24 21 21 21 25 26 27 27 26 26 27 27 27 26 25 25 24 24 26 25 25 23 24 23 22 21 22 22 23 23 22 23 24 24 26 26 25 24 23
24 24 25 25 26 25 23 20 22 25 24 25 25 26 26 25 27 28 26 25 26 25 23 24 24 25 26 24 22 23 23 22 22 23 24 23 23 24 27 26 26 27 27 25 23
24 23 23 26 26 24 18 19 22 24 26 26 25 23 23 24 26 26 26 24 27 25 24 23 25 27 27 25 25 23 23 25 23 24 23 23 24 25 26 25 24 24 28 25 25
23 21 22 25 24 24 18 20 22 26 27 25 24 24 24 24 24 25 25 26 26 26 23 25 24 26 28 26 25 24 24 23 22 23 24 24 24 25 24 23 23 23 26 25 26
22 19 24 24 26 17 20 20 23 26 27 26 25 25 25 25 24 24 24 26 26 26 24 24 23 25 26 26 24 24 25 23 22 22 23 24 24 25 23 23 23 23 25 26 25
17 20 24 24 20 14 19 21 25 27 25 26 25 25 25 23 23 24 25 26 26 25 25 24 20 23 26 25 24 26 26 23 23 26 22 23 25 22 22 21 22 23 23 25 25
13 14 23 24 20 19 20 24 27 27 26 26 25 25 23 22 24 23 23 26 26 26 26 25 20 20 21 22 24 24 25 24 19 19 22 24 25 22 21 21 21 23 23 23 23
14 19 18 17 17 22 23 25 26 27 26 24 24 23 23 21 20 23 22 25 25 26 25 22 19 21 20 22 23 25 25 25 21 21 22 23 22 21 21 20 20 20 21 20 22
13 18 18 18 19 20 22 25 25 25 25 23 24 23 23 22 22 22 23 22 24 23 24 22 22 23 23 21 24 26 24 23 22 22 24 21 21 20 20 19 19 20 21 20 19
16 17 16 17 17 19 19 24 25 25 25 25 23 23 22 22 22 23 23 23 23 21 21 18 21 21 23 24 25 23 23 23 22 22 21 21 20 19 20 20 20 19 19 19 19
15 16 15 17 18 19 20 23 24 24 25 24 24 22 23 24 23 23 20 16 18 21 19 18 19 19 22 21 24 22 21 21 21 20 20 19 19 19 19 18 18 18 18 18 18
Height
798 797 795 793 791 789 787 785 784 782 780 778 777 775 774 773 771 769 768 762 761 763 765 768 770 771 772 773 774 775 797 806 797 792 790 777 783 782 779 787 789 790 798 805 812
799 797 795 792 790 788 786 784 782 781 779 777 776 775 774 772 769 766 758 758 760 762 764 767 770 772 777 777 777 784 803 793 791 790 790 779 777 780 790 793 798 798 803 810 815
800 798 795 793 790 788 785 783 782 779 778 776 775 774 773 772 771 757 754 756 760 761 763 766 768 771 780 775 778 782 801 787 789 788 790 791 788 775 788 799 795 802 804 811 817
801 799 796 793 791 788 786 784 782 780 778 776 775 774 773 773 776 755 754 755 759 762 764 765 769 776 782 786 774 790 785 789 792 791 795 796 789 785 780 787 789 796 802 808 815
801 799 796 794 791 788 785 783 781 779 778 776 775 774 774 774 765 755 754 756 759 762 763 765 772 775 784 777 776 784 788 792 792 793 794 790 790 788 787 786 793 799 805 808 814
801 798 796 794 791 788 785 783 780 778 777 776 775 775 775 777 757 756 756 757 759 761 763 766 769 769 776 775 776 777 788 790 793 795 794 790 786 787 788 785 795 801 806 809 812
800 798 795 792 790 787 784 781 779 777 777 776 775 775 776 766 757 757 758 759 759 760 763 765 766 771 772 775 776 781 796 796 798 799 800 790 796 793 783 789 796 801 806 809 813
799 797 794 791 788 785 782 779 777 776 775 775 775 776 773 757 757 757 758 758 759 762 765 766 767 770 772 770 781 790 798 805 803 804 798 799 806 789 779 788 799 801 805 808 811
798 796 793 789 786 782 779 776 774 774 775 775 776 776 769 756 754 753 756 757 759 763 765 765 767 773 772 788 801 801 818 816 814 806 803 801 802 789 782 785 793 798 802 806 812
797 794 791 787 784 780 777 774 772 774 775 775 777 779 759 756 752 751 754 757 759 761 765 767 774 787 793 802 817 811 818 818 816 811 804 804 798 791 789 790 792 799 802 805 810
796 792 788 785 781 777 774 775 777 778 777 769 767 766 757 752 751 751 753 758 759 764 780 773 788 800 790 787 782 792 805 815 815 807 807 808 809 803 800 796 798 801 802 804 807
794 790 785 782 779 776 775 776 778 779 780 761 763 762 755 755 758 752 753 762 768 783 775 787 797 781 777 780 786 797 803 816 812 805 812 814 813 810 808 804 802 804 801 801 807
792 787 783 779 776 776 775 775 776 775 784 766 757 756 752 753 757 755 753 759 770 779 782 795 782 771 776 786 793 797 798 806 809 813 811 813 817 814 807 803 799 799 799 796 801
790 785 781 777 779 776 774 774 773 771 800 777 762 753 749 750 760 748 751 758 768 781 782 787 772 777 786 791 789 804 788 794 806 814 828 813 830 813 807 807 802 800 800 800 799
788 783 780 778 776 776 776 772 770 771 824 766 759 746 749 759 755 752 749 756 773 775 780 789 777 782 789 778 780 795 787 800 806 814 819 823 833 810 804 807 802 797 797 797 798
785 781 779 777 776 774 772 769 770 803 812 778 759 760 762 757 757 752 755 754 757 770 775 777 759 767 770 766 775 783 797 805 805 819 836 815 825 813 807 798 793 790 789 793 794
782 779 777 777 775 773 772 770 804 817 780 780 772 764 767 769 763 762 768 774 785 794 797 779 771 766 762 784 785 789 806 833 836 836 834 808 818 798 781 777 776 778 783 787 791
780 778 776 774 773 773 773 788 815 790 789 770 772 770 776 773 767 765 775 785 773 780 796 801 803 773 760 772 786 793 795 823 845 838 821 808 813 789 757 760 760 760 763 776 787
778 775 773 771 772 774 783 813 805 789 775 777 775 790 791 778 772 773 778 786 772 774 793 800 792 760 758 761 768 792 804 785 809 813 822 808 792 768 755 761 764 767 762 769 777
777 775 773 771 773 775 797 808 795 773 767 774 791 786 794 787 786 783 783 772 773 766 768 779 798 771 759 761 766 776 775 807 811 832 831 810 802 789 773 770 767 767 760 763 768
777 782 773 773 774 788 808 805 785 768 764 776 782 788 786 787 785 790 788 772 766 765 766 775 789 784 770 775 781 787 788 793 800 811 822 821 803 769 767 764 765 766 759 757 768
782 793 775 776 793 806 804 792 772 770 767 772 774 779 785 788 791 790 788 775 762 767 776 774 795 799 781 767 769 768 781 791 807 801 810 809 802 777 768 770 765 768 766 767 761
796 793 776 775 804 805 792 781 769 771 773 773 781 778 782 793 795 789 786 766 763 766 773 771 800 818 809 791 775 783 776 779 796 804 809 811 801 784 779 775 769 767 767 766 769
795 799 785 782 790 791 789 781 778 766 774 777 782 782 787 798 796 795 791 773 768 766 765 771 799 805 823 808 796 791 781 776 791 810 807 803 801 795 788 785 780 778 774 774 771
797 798 795 803 794 791 786 778 780 782 776 780 786 788 791 802 799 799 790 786 773 773 772 780 800 792 786 796 786 782 783 783 790 792 795 802 801 800 795 794 790 785 779 775 774
800 799 796 797 795 793 793 782 781 779 779 785 790 789 789 796 795 798 792 790 790 783 784 791 803 796 793 781 782 792 786 785 790 792 796 799 803 801 793 790 790 789 784 777 778
798 798 798 797 796 795 794 785 779 775 776 776 781 789 790 785 780 781 786 796 793 790 796 801 805 811 809 798 790 806 802 796 796 795 795 808 804 800 798 799 797 794 789 786 781
Wind_Speed
14 13 13 13 12 12 12 11 12 12 12 12 11 11 10 11 13 7 6 5 7 7 7 4 5 2 1 1 2 1 4 1 3 8 2 6 10 5 5 15 5 3 8 13 23
16 16 16 15 13 13 12 11 11 11 11 11 10 10 10 12 11 9 9 11 10 10 5 6 5 5 2 2 2 3 2 2 3 2 3 10 14 14 9 11 13 13 12 24 24
17 18 19 18 16 14 13 12 11 11 10 9 8 8 8 9 3 6 2 16 13 11 6 5 5 3 2 3 3 2 5 4 4 2 4 5 4 10 19 12 18 20 18 19 24
17 17 18 19 19 18 15 14 13 12 10 9 8 6 6 3 4 1 6 17 14 13 5 7 3 3 3 4 4 4 3 6 2 2 3 2 10 3 17 8 18 21 21 22 17
16 17 18 19 20 19 18 16 14 11 9 8 7 6 2 2 7 5 1 19 17 11 7 5 3 3 2 2 6 3 8 7 3 7 6 8 7 3 7 16 18 21 22 21 17
15 17 18 18 20 19 20 17 15 10 8 8 4 3 2 2 4 3 6 19 13 13 7 6 6 3 3 5 2 5 6 4 0 4 8 6 5 9 6 19 19 20 19 18 17
15 16 18 19 20 20 20 18 14 8 7 6 2 3 1 8 5 4 6 8 16 15 4 7 4 4 3 1 4 13 7 7 6 3 5 6 4 9 19 19 21 19 16 15 18
15 17 18 20 21 21 20 18 12 7 5 4 2 2 6 1 6 12 8 4 11 13 11 2 9 1 2 4 4 2 6 3 6 8 6 5 4 12 21 20 19 17 15 14 14
16 17 19 20 22 22 21 19 11 4 2 1 2 2 8 6 5 10 14 3 7 6 2 5 4 4 1 3 4 6 6 4 2 6 5 3 5 10 14 19 20 17 15 15 14
18 19 20 21 23 22 19 13 4 2 2 1 2 3 4 4 3 7 15 8 2 4 1 2 2 3 3 4 2 4 7 4 3 3 3 4 5 6 5 11 16 12 13 15 15
20 21 22 22 21 20 17 2 4 3 2 5 4 3 7 9 3 6 11 7 2 4 3 1 1 4 5 4 1 5 9 6 2 6 1 3 3 6 6 3 2 6 12 14 14
22 25 24 18 14 14 7 4 3 1 7 8 6 6 12 4 3 2 10 4 4 4 0 5 4 5 2 6 11 8 9 5 3 2 2 7 9 0 4 3 3 2 5 15 7
24 27 22 12 7 3 6 4 6 13 1 7 5 4 4 7 3 2 7 3 3 4 2 4 4 6 5 10 9 2 5 7 5 3 2 4 5 5 4 3 2 4 2 13 18
25 25 18 10 2 6 6 8 22 5 4 6 3 5 2 3 2 5 7 4 3 8 4 4 5 6 9 5 6 5 1 7 12 4 2 2 2 7 11 7 3 6 5 7 16
25 20 12 6 4 2 7 23 7 4 4 3 2 2 3 5 1 3 5 4 4 3 4 7 2 4 6 11 6 3 11 9 4 4 1 4 0 4 8 9 11 7 8 7 15
23 14 8 4 6 5 18 22 4 5 3 6 3 0 2 2 2 2 3 4 2 2 1 8 5 7 7 4 7 14 10 4 3 4 3 5 4 5 7 14 13 8 10 8 17
19 10 6 5 3 11 21 4 5 5 4 6 3 1 1 3 2 3 4 3 3 3 3 5 2 4 14 14 4 6 4 3 4 2 4 0 3 8 13 12 22 18 12 10 12
17 10 8 11 11 14 7 5 7 3 4 5 4 3 4 7 4 2 3 1 1 3 1 1 3 5 8 7 11 9 5 6 2 2 3 2 5 6 10 14 18 18 20 15 10
16 8 7 3 3 3 5 5 5 4 3 4 4 6 5 4 1 3 1 4 1 4 6 3 5 5 6 3 13 5 4 2 7 2 0 3 5 8 5 5 6 9 16 19 16
11 7 5 2 7 6 5 3 3 4 3 4 3 3 2 5 7 4 2 3 3 2 3 1 1 4 2 6 6 5 7 3 2 4 4 4 5 6 2 8 6 13 20 17 18
4 4 2 7 6 5 3 5 5 4 3 3 2 4 1 3 2 3 3 3 3 6 5 1 2 4 1 2 8 2 2 3 4 4 4 1 5 6 7 7 8 5 12 19 16
3 3 8 5 3 1 1 5 6 2 4 5 4 3 4 4 5 5 3 4 8 1 3 3 4 1 3 5 4 7 3 4 4 3 1 3 3 9 10 7 8 5 4 3 18
2 3 1 5 1 3 5 5 3 2 2 2 5 4 2 4 3 3 5 7 6 1 0 2 3 3 7 7 6 6 2 0 3 3 3 4 2 9 8 12 9 6 6 5 1
2 3 4 4 1 3 3 4 3 3 5 6 2 5 4 7 5 4 6 4 8 5 5 6 2 5 5 5 3 4 5 2 5 4 2 4 4 10 12 12 11 10 10 11 3
2 2 2 3 4 5 2 3 3 3 3 4 5 4 4 4 4 5 4 6 4 8 5 4 2 1 4 7 2 2 3 7 6 3 3 3 5 7 5 5 5 5 7 12 11
1 2 4 3 4 5 5 1 4 3 3 1 5 3 3 4 5 3 0 0 1 5 4 5 0 5 4 6 6 4 5 7 5 3 6 5 8 5 5 4 8 5 5 10 8
5 3 3 3 4 3 1 4 6 7 1 6 6 5 3 3 4 2 5 5 3 1 2 3 2 3 3 3 4 6 6 6 2 6 4 4 1 2 10 11 10 8 7 5 8
Wind_Direction
11 3 359 351 345 342 340 336 332 329 326 323 324 324 325 322 314 285 246 221 178 156 160 114 137 180 279 344 92 140 67 233 287 134 93 148 127 160 83 125 128 148 134 144 147
18 16 11 2 351 345 343 340 335 331 326 324 325 330 334 328 320 263 245 188 157 184 164 153 127 147 358 120 269 90 118 150 24 15 18 162 152 136 134 138 111 103 108 140 147
20 18 15 11 4 360 352 352 347 344 337 331 332 335 338 335 310 251 335 195 184 185 178 139 98 139 185 133 197 48 176 229 348 201 33 343 200 143 150 152 152 149 145 153 155
12 13 12 11 7 3 359 354 352 348 347 343 337 339 338 350 147 349 324 178 171 160 159 135 116 138 180 213 143 112 217 178 129 36 63 315 314 208 160 158 152 145 151 151 161
3 4 4 5 4 2 357 349 345 338 342 345 343 347 33 326 254 305 338 166 173 176 183 145 130 142 279 232 108 155 165 178 142 330 312 279 264 169 155 135 141 146 154 162 163
353 355 353 356 357 356 356 349 344 338 336 343 349 21 18 302 316 263 155 169 185 192 179 151 169 204 273 228 150 168 121 164 176 304 296 276 222 218 169 142 146 158 166 164 164
348 346 344 347 348 349 351 345 340 337 334 343 36 53 28 229 43 165 169 191 203 201 142 189 189 58 347 14 153 123 124 154 126 9 292 345 221 181 147 149 156 169 172 168 170
346 339 339 340 340 341 341 336 326 324 338 345 75 75 250 204 294 223 227 267 217 219 208 217 206 272 206 110 86 83 53 24 34 333 238 281 191 163 156 153 165 168 171 172 176
345 338 336 335 334 335 335 330 313 267 341 68 65 82 280 302 242 231 216 210 179 179 197 259 177 200 171 99 55 27 113 70 6 320 285 298 134 170 172 159 171 172 175 178 174
344 339 334 332 330 327 334 339 18 111 101 6 267 329 277 323 229 187 201 175 132 115 105 138 75 92 42 80 217 156 124 130 177 296 237 339 117 124 169 176 169 159 163 167 166
345 338 331 327 323 318 333 346 12 11 162 224 223 256 283 310 220 158 174 176 113 52 135 215 131 195 211 176 88 114 105 117 186 254 269 353 43 153 0 6 132 158 159 161 170
342 338 333 326 316 316 343 90 206 60 313 232 235 269 267 264 298 130 156 134 113 199 229 24 254 218 205 148 122 124 125 131 200 225 231 184 224 174 305 266 112 2 190 170 145
342 338 336 331 311 350 322 299 340 331 149 299 200 205 225 148 211 242 134 168 145 143 160 147 250 141 148 131 128 208 160 179 139 125 340 148 206 216 280 281 288 258 236 175 162
341 339 338 342 74 338 290 347 329 162 55 290 295 281 139 112 307 216 179 133 43 196 159 235 253 165 144 174 156 174 231 134 128 128 243 24 248 240 193 247 225 235 229 181 178
339 339 338 328 306 255 329 331 356 106 52 290 273 172 79 137 264 227 164 55 179 216 105 252 269 161 185 209 140 180 108 113 136 99 200 163 262 263 181 219 250 224 224 201 179
340 338 336 328 306 302 343 336 109 42 22 332 325 85 30 226 251 75 115 47 177 226 273 241 233 170 211 148 125 125 102 54 108 70 325 183 188 206 179 208 233 216 206 196 177
344 335 320 292 285 314 335 22 44 85 348 311 294 248 107 296 44 128 137 151 175 35 345 316 354 67 103 91 52 128 115 53 41 345 238 196 181 241 202 200 208 217 186 188 189
343 317 289 277 280 307 351 53 65 272 274 301 343 60 31 19 342 128 100 259 151 124 191 86 355 188 192 157 173 171 143 138 110 273 263 113 237 260 203 192 204 188 176 173 187
340 320 289 267 256 64 61 51 198 231 240 348 9 55 354 341 74 73 169 192 231 186 173 151 293 297 185 130 132 229 206 190 118 333 240 204 278 292 256 175 192 209 194 181 180
339 329 281 316 138 75 69 244 260 238 6 48 100 173 64 325 23 33 19 297 334 205 187 208 166 271 114 92 283 182 165 76 23 154 232 271 274 247 132 192 215 210 206 189 172
13 26 342 160 130 49 119 238 276 303 77 74 217 19 350 36 356 40 293 286 24 335 86 135 120 262 121 179 189 187 225 58 123 145 171 249 266 317 210 185 190 226 193 176 163
27 21 120 158 44 57 211 199 258 9 10 35 95 70 50 17 55 31 329 335 358 338 18 350 128 27 245 300 311 127 104 144 129 213 197 149 310 341 51 56 86 64 29 260 163
70 257 226 202 127 298 294 279 254 91 9 43 44 42 55 55 63 43 342 301 5 97 58 335 8 26 348 2 353 39 344 312 111 63 187 138 281 13 40 51 39 53 64 65 9
54 9 323 43 114 203 293 258 166 37 67 73 75 73 59 21 18 27 343 333 347 9 26 88 85 146 166 214 253 352 323 52 107 98 201 237 86 36 30 53 45 62 82 69 177
45 262 198 314 320 344 221 301 108 103 65 47 35 74 120 40 25 9 337 331 343 7 8 71 74 259 231 216 237 226 86 48 66 316 125 346 98 17 28 1 15 12 78 85 82
47 26 356 279 314 324 356 261 141 132 111 66 122 137 105 139 159 242 90 346 291 333 42 1 153 0 340 330 73 78 39 77 52 48 79 98 77 8 68 39 35 7 24 68 99
352 338 116 266 330 38 281 281 229 131 263 156 161 122 132 209 205 180 109 80 73 119 59 63 86 58 275 357 130 330 0 63 77 24 140 89 178 47 78 52 28 14 20 19 44